Wind_Speed
23 23 25 27 28 29 31 31 31 31 31 32 31 29 29 29 29 28 26 23 21 20 19 17 15 14 15 16 16 16 15 14 12 10 9 8 8 8 9 10 11 12 13 13 13 13 12 13 13 14 15 15 15 16 16 18 20 22 24 24 24 25 25 27 30 29 25 24 27 26 24 24 23 22 24 24 23 25 26 26 27 27 27 27 27
22 22 25 27 27 28 31 33 34 34 33 35 35 33 32 32 31 31 30 26 24 23 21 18 15 14 15 16 17 16 15 14 12 10 9 8 8 8 9 10 12 12 13 13 13 13 13 13 14 15 16 17 17 18 19 21 23 24 25 26 26 25 26 27 29 31 28 24 24 26 26 25 23 22 23 24 25 26 26 26 27 29 29 28 28
23 24 25 28 31 34 33 32 34 36 37 37 37 36 35 34 34 34 34 31 28 26 22 19 16 15 16 16 17 17 16 14 12 10 9 8 7 8 10 11 12 12 13 13 13 13 14 15 16 17 18 18 19 21 22 23 24 25 25 27 28 26 26 27 28 30 30 26 23 24 27 27 26 25 25 26 27 29 29 28 28 30 31 31 30
24 25 26 30 37 39 37 35 34 35 37 39 39 39 39 38 36 36 35 33 33 30 23 19 18 17 17 18 18 18 16 14 12 10 8 7 8 9 10 11 12 13 13 13 13 14 15 16 18 19 19 19 20 22 23 24 24 25 26 27 28 27 27 27 28 28 30 28 25 24 26 29 29 28 28 28 28 30 31 30 30 31 32 32 33
24 25 28 35 39 37 37 39 39 38 38 39 40 41 42 42 41 41 39 36 37 35 26 20 20 20 19 20 19 18 17 15 12 10 8 8 9 9 10 10 12 13 13 13 14 15 17 18 19 20 20 20 21 22 24 25 26 26 27 28 29 28 28 27 27 28 29 30 28 25 26 28 30 29 29 30 31 31 32 33 33 33 32 33 34
25 26 31 37 38 37 37 38 40 40 38 39 41 42 44 45 45 46 45 41 39 36 29 26 23 21 21 23 21 19 18 15 12 10 9 9 10 10 10 11 12 13 12 13 15 18 19 20 20 20 20 21 22 23 24 26 27 27 28 29 29 30 29 28 28 28 29 31 31 29 27 28 30 30 29 31 33 32 33 34 34 34 33 33 33
25 27 31 34 34 36 39 40 40 40 39 40 42 44 45 47 47 47 48 46 40 34 33 33 27 21 23 25 22 19 18 15 11 10 10 10 11 11 11 12 13 13 13 14 17 19 21 21 21 21 21 22 23 24 25 26 27 28 28 29 30 30 30 29 28 29 29 31 32 32 30 28 29 31 30 31 32 33 34 35 35 34 33 34 34
25 26 30 31 30 31 32 36 40 43 44 45 46 48 48 48 49 48 50 50 43 36 37 35 27 23 26 26 21 20 18 14 11 11 10 11 12 12 12 13 13 13 13 15 18 20 22 22 21 21 22 23 25 26 26 27 28 28 29 30 31 31 30 29 29 29 30 32 33 33 32 30 29 29 30 31 32 32 34 36 36 36 36 36 36
24 24 25 26 26 25 23 26 34 40 45 49 50 51 51 51 52 50 51 52 47 40 37 31 24 23 27 25 21 20 17 13 12 12 12 12 13 13 13 13 13 14 14 16 19 21 22 22 22 22 23 24 26 26 27 28 29 30 30 30 31 31 31 30 31 31 32 33 34 33 32 31 29 28 30 31 32 34 35 37 38 37 37 38 38
22 22 22 22 23 22 21 23 28 34 44 51 51 50 52 54 56 55 54 54 48 41 35 29 24 24 27 25 22 20 17 14 13 13 13 14 14 14 14 14 14 15 15 17 19 21 21 21 21 22 24 25 27 27 29 30 31 32 31 31 31 31 31 32 33 34 34 34 34 33 32 31 29 29 31 31 32 35 36 37 39 39 39 39 39
20 21 22 23 23 23 23 24 25 30 39 44 44 46 50 50 53 58 59 54 48 43 37 30 27 27 27 25 23 20 16 14 14 14 15 15 16 16 16 16 16 16 16 18 20 21 22 22 22 22 24 27 29 30 31 32 32 32 32 32 32 32 32 34 34 35 35 35 33 32 32 32 31 30 32 33 33 35 36 37 38 40 40 40 40
23 24 25 26 27 27 26 27 27 28 33 35 36 42 47 46 47 53 55 54 53 45 34 29 28 28 28 27 24 20 16 14 15 15 15 16 17 17 18 19 19 19 19 20 21 22 23 25 26 26 27 29 31 32 33 33 33 33 32 32 32 31 33 34 35 36 36 35 34 32 31 32 33 31 32 34 35 35 36 37 38 40 41 41 42
25 26 28 29 30 31 30 30 29 28 29 29 29 34 40 41 39 37 39 48 53 41 27 27 30 28 28 27 24 20 16 15 16 16 15 16 17 18 19 20 21 22 22 22 23 23 23 25 28 30 30 31 32 33 34 34 34 33 32 32 32 32 32 33 34 35 35 36 35 33 31 33 34 32 32 34 35 36 37 37 38 39 41 42 41
24 25 26 27 28 29 29 28 27 26 26 26 25 27 31 33 31 29 30 37 45 38 27 29 31 28 28 28 24 20 17 16 16 16 16 17 17 19 20 21 23 25 25 24 25 26 26 27 29 31 31 31 33 34 35 35 34 34 32 32 32 32 32 32 32 32 33 33 34 33 31 32 33 32 31 32 34 36 37 38 39 40 41 41 40
21 21 22 23 24 25 25 25 24 24 24 24 24 25 27 27 25 26 26 28 36 37 32 32 33 29 28 27 24 20 18 17 17 17 17 18 19 20 21 23 25 27 28 26 25 27 29 30 31 31 32 32 34 35 35 35 34 33 32 33 33 32 31 30 29 29 30 30 31 32 31 30 30 31 30 31 34 36 38 40 40 42 43 43 41
19 20 21 22 22 23 23 22 22 22 22 23 22 22 25 24 22 23 24 25 31 34 34 35 33 29 28 27 24 21 19 17 18 19 19 21 23 23 24 26 28 29 29 27 26 28 30 32 32 32 33 34 34 35 35 35 34 33 33 33 33 30 28 27 26 26 27 29 29 30 29 29 29 30 31 32 35 38 40 41 41 43 45 45 44
20 20 21 21 21 22 21 20 20 20 21 21 20 21 24 23 21 23 25 27 30 33 35 35 32 28 28 27 24 22 19 19 20 20 21 23 26 27 28 29 33 35 32 26 26 29 31 32 34 34 34 34 35 34 35 34 33 33 34 34 32 27 24 24 25 25 26 28 28 28 29 29 30 31 32 33 36 39 42 42 42 44 45 45 46
20 19 19 19 20 20 20 19 20 20 21 21 19 20 23 21 19 22 25 29 31 33 35 34 30 29 29 28 25 24 23 21 21 22 24 27 28 29 30 32 35 37 34 30 30 31 31 33 35 34 35 35 34 34 33 33 33 33 34 33 29 25 23 23 25 27 27 28 28 28 28 29 30 31 32 33 35 38 41 42 42 44 45 45 47
19 19 20 20 20 21 21 21 21 21 22 22 20 20 19 16 17 22 27 30 32 34 35 33 30 30 31 29 28 27 26 24 23 24 27 29 29 30 31 33 37 38 36 35 33 31 32 34 35 35 35 35 34 33 33 33 33 33 33 31 28 25 24 25 26 28 28 27 27 27 28 29 31 31 32 33 34 36 39 40 42 43 45 45 45
19 20 21 22 23 23 24 23 22 23 23 22 21 20 15 13 17 24 30 33 34 35 35 32 31 32 32 30 29 29 29 26 25 27 29 31 31 31 33 35 39 40 38 35 32 31 33 35 35 34 35 35 35 34 33 33 33 32 31 29 27 25 25 26 27 28 28 27 28 28 29 30 31 32 32 33 34 35 37 38 40 41 43 44 44
19 21 22 23 24 25 26 24 24 24 23 21 20 17 14 13 17 25 32 35 35 36 35 33 34 34 32 30 30 30 29 27 28 31 33 32 32 32 34 36 36 35 34 32 31 32 33 34 34 34 35 35 36 35 34 33 32 32 30 28 26 26 26 27 28 28 28 28 28 29 30 30 30 31 32 32 32 33 35 36 37 38 40 41 42
20 20 22 24 25 26 27 25 25 25 22 20 18 13 13 14 17 24 33 36 36 35 35 35 35 34 32 31 30 29 29 30 32 33 32 33 35 36 34 32 31 31 31 31 31 31 32 33 34 34 35 35 35 34 33 32 31 30 28 27 26 27 27 28 28 28 29 29 29 30 30 30 30 31 31 31 31 32 33 33 34 35 36 37 38
19 20 21 24 26 27 27 25 25 24 21 20 18 12 13 15 18 24 32 37 37 36 35 35 35 34 33 33 33 33 32 31 30 28 26 26 29 30 28 28 30 31 30 29 29 30 32 34 34 34 34 34 33 32 31 30 30 29 27 26 27 27 28 28 28 28 29 29 29 29 29 29 30 31 31 31 30 30 31 31 31 32 33 34 34
19 19 21 24 26 28 27 25 24 22 20 21 20 15 14 16 19 24 32 36 36 35 34 34 35 34 34 35 35 35 33 29 26 26 25 22 22 23 25 27 28 28 27 28 30 32 33 34 33 33 33 33 32 30 29 29 29 28 27 27 27 28 28 28 28 28 29 29 29 29 29 29 30 32 31 31 31 30 31 30 30 30 32 33 31
19 20 22 25 27 28 27 24 22 21 20 21 20 15 13 15 18 25 32 35 35 35 36 37 36 35 35 36 36 35 31 28 27 28 26 24 23 23 25 26 26 27 28 30 32 33 33 33 32 32 33 32 30 29 28 29 28 28 27 27 27 28 29 29 29 30 31 31 30 29 29 29 30 32 32 31 31 31 31 31 30 30 31 31 29
21 23 26 29 29 27 25 22 21 21 21 21 18 15 14 14 18 26 34 36 36 37 38 38 36 35 36 38 38 34 27 25 28 27 26 26 26 25 25 26 27 29 31 32 33 33 33 33 32 32 32 31 29 28 28 28 29 29 28 28 28 28 29 29 30 31 32 31 29 29 29 30 30 31 31 31 31 32 32 32 31 30 29 29 28
27 30 32 32 29 24 21 19 20 20 21 20 18 17 17 17 19 28 35 37 38 38 39 38 37 38 40 40 36 30 25 25 24 23 24 27 27 26 27 28 29 31 32 32 33 33 33 32 32 31 30 29 28 27 27 28 29 29 28 28 28 28 29 29 30 31 30 29 28 28 29 30 30 30 30 30 31 31 32 32 31 29 28 28 28
33 36 36 31 24 20 18 18 19 20 20 20 19 18 18 17 22 29 36 39 40 40 40 40 39 39 38 33 28 25 25 25 21 22 25 27 26 26 28 29 30 30 31 31 32 33 32 32 31 30 29 28 27 26 26 27 28 28 27 27 27 27 28 28 29 29 29 28 27 28 29 30 30 30 29 29 30 30 30 30 29 28 27 26 27
35 34 30 23 19 17 17 17 17 17 17 17 17 17 16 18 24 32 37 39 40 40 39 39 39 37 32 25 22 24 27 24 22 25 26 25 25 27 28 29 29 29 30 31 32 32 32 31 30 29 28 27 26 25 26 26 26 26 26 25 25 26 27 27 27 27 27 27 27 28 29 29 29 29 29 28 28 28 28 28 27 26 25 24 25
29 26 22 18 17 17 17 17 17 17 16 15 15 16 16 18 24 31 37 39 39 40 40 39 39 37 30 24 23 25 25 25 25 25 24 24 27 28 28 29 29 29 30 32 32 33 32 31 30 29 27 26 25 25 25 25 25 25 25 24 25 26 26 26 26 26 27 27 27 27 28 28 28 28 28 27 27 26 25 25 25 24 24 24 24
24 22 20 19 19 19 19 19 18 15 13 11 11 11 11 14 17 24 31 37 39 40 40 39 38 34 29 25 23 24 24 25 24 24 24 26 28 28 29 31 30 30 32 33 33 33 32 31 29 27 26 25 24 23 23 23 24 24 25 25 24 24 24 25 25 26 26 26 26 26 27 27 26 26 26 26 25 24 23 23 23 21 21 23 24
22 22 21 20 19 19 18 17 14 11 9 8 8 6 6 9 12 14 19 25 31 34 35 35 34 32 28 24 23 23 24 24 24 25 26 27 28 30 32 32 31 32 33 33 33 32 30 27 25 24 23 22 21 21 22 23 24 25 25 24 23 23 23 24 25 26 26 25 25 25 24 24 24 23 23 24 23 23 22 22 21 20 19 20 22
21 21 20 18 16 15 14 11 9 7 7 7 8 8 7 9 11 12 13 16 21 25 27 27 27 26 24 23 22 22 23 24 25 26 27 28 31 32 33 32 33 33 33 32 31 29 26 23 22 21 20 20 20 21 23 24 25 26 25 23 23 23 23 24 25 26 25 24 23 22 22 21 21 20 21 21 22 22 22 22 20 19 19 19 20
20 18 16 13 11 10 9 8 9 9 8 7 8 10 10 10 12 14 14 15 17 19 20 21 21 22 22 21 21 22 23 24 26 27 29 31 32 33 33 33 33 32 31 30 29 25 22 20 20 20 20 21 22 23 24 24 25 25 24 23 23 23 24 24 25 25 24 22 21 20 19 19 19 18 18 19 20 21 22 22 21 19 19 19 20
17 16 14 12 10 9 9 11 12 12 9 8 10 12 12 13 15 16 17 17 18 18 19 21 21 21 21 21 21 23 24 26 28 30 31 32 33 33 34 33 32 30 29 28 25 22 20 20 20 21 21 22 23 24 24 24 24 24 24 23 23 23 24 24 24 23 22 20 19 18 17 17 17 17 17 18 19 20 22 22 22 21 19 19 20
16 15 13 12 11 12 13 15 16 16 14 12 12 14 15 16 17 19 19 19 19 19 20 21 21 20 21 21 23 24 26 27 29 31 31 32 33 33 32 31 29 28 28 26 23 20 19 20 21 22 22 23 24 24 24 25 25 25 24 24 23 24 24 23 22 21 19 18 17 16 16 15 15 16 17 18 19 19 21 22 22 22 20 19 20
14 13 12 12 14 15 17 18 18 18 18 16 16 16 17 18 19 20 20 19 20 20 20 20 21 21 22 23 24 26 27 29 30 30 31 31 31 31 30 29 27 27 26 23 20 19 19 21 22 22 23 23 24 24 25 25 25 24 24 23 23 23 23 22 20 18 16 16 15 15 15 15 15 16 17 18 18 18 19 20 21 21 21 20 19
13 13 13 14 16 18 19 19 18 18 19 19 18 18 18 19 19 20 20 20 20 21 21 22 22 23 24 25 26 28 29 30 31 31 31 30 29 29 28 27 26 25 23 20 19 19 20 21 21 22 23 23 24 25 25 24 24 23 23 23 23 22 21 19 17 15 14 14 14 14 14 15 16 17 18 18 19 18 18 18 19 20 20 20 18
14 14 14 16 19 20 20 18 17 18 19 20 20 20 20 21 21 21 21 22 23 24 24 24 25 25 26 27 28 29 30 31 32 31 30 29 28 27 27 26 25 23 22 20 19 19 20 21 22 23 23 24 25 25 25 23 22 21 21 21 21 20 18 16 14 14 13 13 13 14 15 16 17 19 19 18 18 18 17 17 17 18 19 19 18
16 17 17 18 19 20 18 16 16 18 19 21 22 22 23 23 24 24 25 27 27 27 27 26 26 26 28 29 30 30 31 31 31 30 29 28 27 26 25 24 24 23 22 21 21 21 22 22 23 24 25 25 25 25 24 22 20 20 20 20 19 17 15 14 13 13 12 12 13 14 15 17 18 19 19 18 18 17 17 16 16 17 18 18 18
19 19 18 17 17 17 18 18 18 19 20 21 23 25 25 26 27 29 29 28 27 27 27 27 27 28 30 30 30 29 28 27 27 26 26 25 24 24 24 24 24 23 23 23 23 24 24 25 25 25 26 26 26 25 23 21 19 19 18 18 16 14 13 12 12 12 12 12 13 15 16 17 17 17 17 17 17 16 16 15 14 15 16 17 17
19 18 16 15 15 16 18 19 19 19 20 22 24 26 27 28 29 28 27 27 27 28 28 28 29 29 29 28 26 25 24 24 24 23 23 23 23 23 23 24 24 24 25 26 27 28 28 28 27 27 26 26 25 23 21 19 18 17 16 15 14 12 12 11 12 12 12 13 14 15 16 16 17 16 16 16 16 15 15 14 14 14 14 15 16
17 17 16 16 17 18 19 20 21 21 22 23 24 25 25 26 27 27 28 29 29 29 29 28 27 26 24 23 22 22 21 21 21 22 22 23 23 24 24 25 25 27 28 29 30 30 30 29 28 26 25 24 22 21 19 18 17 16 14 13 12 11 11 11 11 12 13 13 14 15 15 15 16 15 15 15 15 14 14 14 13 13 12 13 14
19 19 19 19 19 19 19 20 21 21 22 22 23 24 25 26 27 28 29 29 28 27 26 25 23 22 21 20 20 21 21 21 21 22 24 25 25 26 26 26 27 29 30 28 26 26 26 25 23 23 22 21 20 19 18 17 16 14 13 12 12 11 11 11 11 12 13 13 14 14 14 14 14 14 14 14 14 13 13 12 12 12 11 11 13
21 18 17 18 17 17 17 18 19 21 22 23 24 25 26 26 26 26 26 25 24 23 22 21 21 21 20 19 20 20 21 22 23 23 24 25 27 27 27 28 28 27 25 22 20 20 21 20 19 19 18 18 17 17 17 15 14 13 12 12 11 11 11 11 11 12 13 13 14 14 14 14 13 13 13 12 13 13 12 11 10 10 10 10 11
17 15 15 15 15 16 18 20 21 23 23 24 24 24 24 23 23 22 22 21 20 20 20 19 20 20 20 20 20 20 21 23 23 22 23 25 27 27 26 25 23 21 19 18 18 18 18 17 17 17 16 16 16 16 15 14 13 12 11 11 11 11 10 11 11 12 12 13 13 14 14 13 13 12 12 12 12 12 12 11 10 10 10 9 9
13 14 15 15 16 18 21 23 24 24 24 23 22 22 21 21 20 19 19 18 18 18 18 18 19 19 20 20 20 20 21 23 23 23 23 24 25 24 23 21 20 19 18 19 19 18 18 17 16 15 14 15 15 15 14 13 12 11 11 11 10 10 11 11 11 12 12 13 13 14 14 13 12 12 11 11 11 11 12 11 10 10 9 9 9
13 14 16 17 20 21 23 23 22 22 21 20 20 20 19 19 18 17 17 17 17 18 18 18 19 19 20 20 20 20 21 21 22 22 23 23 23 23 22 21 21 20 20 19 19 20 19 18 16 15 14 14 14 13 13 12 11 11 10 10 10 10 11 11 11 12 12 12 13 13 13 13 12 11 11 10 10 11 11 11 10 9 9 9 8
15 16 18 19 20 20 20 20 19 18 18 18 18 18 18 18 18 17 17 17 18 18 19 20 20 19 20 20 20 20 20 20 20 20 22 22 23 23 22 22 21 21 20 20 20 21 20 18 16 15 14 13 13 12 12 12 11 10 10 10 10 11 11 11 12 12 12 12 13 12 13 13 12 11 10 10 10 10 10 10 10 9 9 9 8
15 16 17 17 17 17 17 16 16 16 16 16 17 17 17 17 18 18 18 18 19 19 19 20 20 20 21 21 21 22 21 19 18 19 21 22 23 23 23 22 22 21 21 20 20 20 19 17 15 14 13 13 12 12 12 12 11 10 10 10 10 10 11 12 12 12 11 12 12 12 12 12 12 11 10 10 10 10 9 9 9 9 9 9 9
14 15 14 14 14 13 13 13 13 14 15 15 16 17 18 18 19 19 18 18 17 17 17 18 19 20 20 21 21 21 20 19 19 20 21 21 21 23 23 22 22 21 21 21 20 19 17 16 14 13 13 13 12 12 12 12 11 10 10 10 10 10 11 12 12 11 11 11 11 11 11 11 11 10 10 9 9 9 9 9 9 9 9 9 8
Wind_Direction
229 233 237 239 240 241 242 242 243 245 248 250 251 255 257 258 259 260 259 261 265 269 273 277 284 296 302 305 309 312 313 313 313 318 317 315 316 319 325 328 327 325 323 320 317 318 316 309 303 301 303 305 304 303 302 303 305 306 305 303 303 302 301 301 300 298 297 298 299 300 298 298 299 298 296 294 292 287 285 285 285 283 281 278 276
235 238 241 243 242 240 241 244 245 245 249 253 256 258 259 257 258 259 259 258 259 262 268 273 279 288 294 298 301 304 306 305 306 312 314 313 312 315 322 325 324 324 322 318 316 316 313 306 301 299 300 300 299 298 298 300 304 306 305 304 302 301 299 299 300 300 299 298 298 299 298 297 298 299 297 295 293 290 287 287 286 285 284 282 279
241 242 247 248 243 237 237 242 244 245 248 252 255 258 258 256 256 259 262 260 257 259 264 269 275 280 284 289 294 297 297 297 300 305 307 305 304 311 321 324 323 322 320 316 314 312 309 303 299 297 298 298 297 297 298 301 304 307 307 306 304 300 296 297 298 299 300 298 296 296 296 296 296 297 297 295 293 292 291 289 288 287 287 285 283
243 248 253 249 242 237 238 242 247 248 249 250 253 256 257 256 255 257 262 262 258 257 258 261 266 272 279 282 285 289 288 287 291 295 296 296 301 312 319 321 320 318 315 313 311 310 308 303 299 298 299 299 299 299 301 304 306 307 309 308 306 301 295 294 295 297 299 299 298 296 294 294 295 295 296 295 292 292 292 291 290 288 288 288 287
244 251 256 253 249 247 246 249 252 253 252 252 253 254 257 257 255 255 258 260 261 261 255 251 254 260 269 274 275 279 279 278 282 285 286 291 299 309 314 312 311 311 310 310 312 311 308 303 300 300 301 301 301 302 303 304 305 307 309 310 309 304 296 292 293 295 296 298 299 297 295 294 295 295 296 295 293 292 293 293 292 290 290 290 290
249 256 259 259 260 261 260 260 259 258 260 260 257 257 258 256 255 257 257 259 266 269 257 245 246 249 257 264 267 270 270 271 276 277 280 287 295 303 304 302 303 304 306 311 315 314 309 305 302 301 301 301 301 303 304 304 305 307 308 309 308 305 299 294 293 294 296 298 299 298 297 294 293 294 296 296 295 295 294 293 292 292 293 293 292
255 260 263 264 267 268 268 269 267 265 268 268 262 259 259 257 256 257 257 259 267 273 261 247 242 242 249 257 261 263 264 266 270 272 275 281 287 292 292 294 298 299 304 313 316 314 310 306 302 299 299 300 302 303 303 304 306 307 309 309 308 306 300 295 293 294 296 299 300 301 300 297 294 294 295 295 295 296 296 294 293 294 294 294 293
256 260 263 266 269 270 272 273 271 268 270 270 264 259 259 261 258 253 254 257 261 271 269 254 240 238 247 253 255 256 259 263 265 265 268 273 280 285 286 290 295 295 300 309 314 314 310 305 300 297 296 298 299 301 303 306 309 310 311 311 309 306 301 295 293 293 295 298 300 302 301 299 297 297 297 297 298 298 298 296 295 296 296 295 295
253 256 261 264 266 269 273 274 272 270 269 266 260 256 255 258 257 254 253 253 256 266 266 251 237 241 246 249 251 252 254 258 258 259 263 268 274 279 282 288 294 293 294 304 312 313 309 306 303 299 295 295 297 301 307 311 313 313 313 312 310 306 301 295 292 292 295 297 300 302 301 300 301 299 298 299 300 299 299 298 297 297 297 296 297
253 256 261 264 267 269 272 275 275 274 268 261 258 258 256 256 259 257 250 246 250 258 257 249 247 248 247 248 248 247 250 251 251 255 259 264 270 275 280 285 291 291 291 301 311 312 310 309 307 304 301 301 303 306 311 314 314 313 313 311 309 305 299 294 292 293 296 298 301 302 301 301 303 301 299 300 300 300 299 299 298 298 298 298 299
256 260 263 265 267 269 271 276 280 279 275 270 270 269 265 265 267 261 251 246 249 252 253 255 253 247 246 249 244 242 246 244 244 252 256 262 269 272 276 280 285 290 293 300 310 316 316 312 305 305 308 310 310 310 311 313 313 312 311 309 306 303 298 294 292 293 296 297 300 301 301 302 302 301 300 301 300 299 298 298 298 299 300 301 300
261 263 266 266 266 268 270 274 278 282 283 284 286 281 276 279 279 267 257 254 252 251 255 257 251 245 245 245 240 239 240 237 242 251 256 262 268 270 273 276 279 286 292 300 311 320 325 317 306 305 309 309 309 310 309 311 311 311 310 307 304 301 297 294 293 294 296 297 298 299 301 301 300 300 301 301 300 298 297 297 297 299 301 302 302
274 275 276 274 273 273 274 277 279 282 284 287 292 291 289 292 291 277 264 256 251 252 257 252 246 244 242 241 239 236 232 233 242 250 256 264 269 271 274 276 277 280 285 296 308 313 319 318 309 305 307 307 307 308 308 309 310 309 308 306 303 301 297 294 293 294 296 296 297 298 300 300 300 302 303 301 299 297 296 296 297 299 301 301 303
286 286 285 282 279 278 278 279 280 281 285 288 294 298 296 298 295 284 272 257 246 245 248 245 243 243 239 238 236 230 226 231 240 248 255 262 268 275 282 282 280 278 278 290 303 306 309 312 307 303 304 305 307 308 308 308 308 308 308 306 304 302 298 296 294 293 293 294 295 298 301 302 303 304 304 302 299 298 297 297 299 301 302 302 304
291 292 291 288 287 284 281 282 283 284 288 291 292 293 290 292 292 282 271 253 239 237 240 240 240 239 236 235 232 227 224 228 237 245 253 261 267 276 284 286 285 286 284 287 298 307 311 311 307 304 304 306 307 307 306 305 306 307 308 306 304 302 300 298 295 293 292 293 295 299 302 304 304 305 305 303 300 300 299 300 302 303 304 305 306
300 297 294 292 290 288 286 286 286 287 288 287 286 287 286 285 284 275 258 237 231 233 234 235 237 235 232 231 229 225 222 224 235 245 253 261 266 273 281 285 288 289 286 284 292 304 312 312 307 305 305 305 306 304 303 304 306 308 308 306 304 303 300 297 294 292 293 294 296 299 301 303 304 305 306 305 304 302 301 302 303 303 304 305 305
306 300 295 292 291 291 289 288 290 291 292 291 288 288 287 280 269 259 243 226 224 228 229 232 234 230 228 229 228 224 221 223 234 245 253 260 264 271 277 280 280 279 276 280 292 302 309 310 306 304 304 304 304 302 302 305 308 308 307 304 302 300 296 294 294 294 294 295 296 297 298 301 303 305 307 307 306 304 303 303 304 302 302 304 304
304 299 296 297 298 295 290 290 296 301 304 303 297 290 287 277 260 248 234 221 220 224 228 230 229 226 226 227 226 225 224 225 232 243 252 257 263 270 275 281 286 284 282 288 295 301 307 307 304 303 303 302 302 302 305 308 308 307 305 301 298 295 292 293 295 296 297 296 295 295 297 300 301 303 305 305 305 304 303 303 303 302 302 303 303
299 298 299 303 303 300 297 298 304 311 314 312 307 297 286 271 252 239 226 219 219 223 226 226 224 224 225 225 225 227 229 231 236 244 251 258 265 274 281 289 294 291 287 289 293 299 304 303 301 302 301 300 301 304 307 308 306 304 302 297 293 292 292 295 297 298 298 297 295 295 296 298 299 300 303 304 304 303 302 302 302 301 301 302 303
296 297 300 304 305 304 304 305 308 315 318 318 313 301 279 255 243 233 223 219 219 221 223 223 221 223 226 227 229 230 232 237 241 245 250 257 264 274 281 285 287 286 286 289 295 300 301 299 299 301 300 300 303 305 307 305 303 302 299 294 292 292 293 297 300 300 300 298 297 297 297 298 299 301 304 304 304 303 301 300 300 300 301 303 304
290 292 295 301 304 303 303 304 309 315 317 317 314 296 267 252 247 235 227 222 220 221 221 220 220 224 227 231 233 233 235 241 244 245 248 255 260 267 274 278 284 289 291 294 298 298 297 297 299 301 300 302 305 306 304 302 300 299 298 294 292 293 295 299 302 303 302 301 300 299 299 299 301 304 305 305 304 303 301 300 300 300 302 304 306
284 288 292 297 298 297 298 301 308 313 312 313 312 286 253 257 258 241 231 226 223 221 220 219 222 226 230 236 241 240 241 249 254 254 257 262 262 263 270 282 290 293 293 293 295 294 295 297 300 301 303 304 305 303 300 298 298 299 298 295 293 293 296 301 304 305 304 304 304 303 302 303 305 307 308 307 306 304 302 301 302 304 305 307 309
280 285 288 292 291 291 294 299 307 309 305 306 306 273 238 254 260 242 231 227 223 219 218 221 225 229 233 239 244 245 248 256 264 267 271 274 269 266 275 288 291 290 290 292 292 293 296 298 300 303 304 304 302 299 297 296 298 299 297 294 293 294 297 302 304 305 306 306 307 306 305 306 308 310 311 310 308 306 304 305 307 309 309 310 312
280 283 288 292 290 289 294 299 303 302 297 299 301 277 244 251 254 238 228 225 220 216 218 222 226 230 236 241 245 251 257 263 270 275 280 285 282 280 284 288 288 290 292 293 293 295 297 299 301 303 304 302 299 296 296 297 298 298 297 295 294 295 297 300 302 303 306 309 309 309 307 308 311 313 313 312 311 309 309 310 313 315 314 313 316
281 287 293 296 292 290 293 296 296 294 292 296 299 285 260 255 247 232 225 220 216 217 220 222 225 233 239 243 248 255 260 267 276 282 286 289 290 291 291 291 292 293 293 293 294 296 297 299 301 303 303 301 298 296 296 298 298 298 297 295 294 295 296 298 300 302 306 309 310 310 309 310 312 314 315 315 314 312 313 314 316 317 316 315 317
286 295 301 300 294 289 289 290 290 291 292 295 295 284 269 258 237 224 220 217 216 219 222 224 229 237 241 246 251 254 260 276 282 280 283 288 293 296 295 292 292 292 292 294 296 297 299 299 300 302 302 300 297 296 297 299 298 298 297 295 294 295 296 299 301 303 306 309 310 310 311 312 314 315 316 316 315 314 315 316 318 318 317 316 317
285 295 300 297 289 283 283 285 288 290 292 295 293 283 273 257 231 220 218 216 217 222 226 229 234 237 241 247 248 249 267 290 286 273 278 287 290 293 293 290 291 293 295 297 299 300 301 300 301 302 302 298 296 296 297 297 297 297 297 296 296 297 299 301 304 307 310 312 312 312 313 314 315 316 317 317 317 316 317 317 318 319 319 318 319
286 289 290 286 279 275 278 283 287 290 292 293 294 290 278 252 226 219 218 218 220 224 228 232 236 240 245 246 241 248 277 293 281 269 279 286 288 291 291 291 294 297 299 301 302 302 302 302 302 302 300 297 296 296 296 296 297 297 298 298 300 302 304 307 310 312 313 314 315 315 315 316 316 317 318 319 318 317 317 317 318 320 320 320 322
286 284 278 272 267 268 272 275 280 285 287 288 293 293 275 240 222 221 221 221 225 228 230 234 241 246 248 247 247 264 282 284 273 274 282 286 288 291 292 294 299 302 302 304 305 304 304 303 303 302 300 298 297 297 296 297 297 298 300 302 305 308 310 312 314 314 314 316 318 318 317 317 318 318 319 320 320 319 319 319 319 320 321 322 325
277 270 261 254 254 256 259 264 267 271 275 282 289 287 266 235 224 225 226 226 229 233 235 240 247 253 258 263 267 275 277 274 275 281 285 286 289 292 295 300 304 304 304 305 306 305 305 304 304 302 300 298 298 298 298 299 300 302 304 307 309 311 312 313 313 313 314 317 319 319 318 317 318 320 321 322 323 323 322 321 321 321 323 325 327
260 252 244 242 245 250 257 261 262 264 273 285 291 285 257 234 233 235 234 233 234 235 238 244 252 261 271 275 271 269 271 274 280 284 285 288 292 296 300 305 305 304 305 306 306 306 305 305 303 301 299 299 300 300 300 302 303 305 307 309 311 311 311 312 313 313 316 318 319 319 318 318 319 322 324 325 326 327 326 325 324 324 326 327 329
246 242 239 242 249 255 258 258 257 262 276 285 287 275 238 231 242 250 249 247 245 243 245 252 259 264 267 265 264 267 273 278 283 286 290 294 297 299 302 304 304 304 305 305 306 306 305 304 302 301 301 302 302 303 304 304 304 305 307 310 312 312 312 312 313 315 316 318 319 319 318 319 321 325 328 329 331 333 333 331 329 327 329 331 332
240 239 241 247 253 254 253 255 264 281 294 290 277 261 240 229 236 247 254 256 254 251 250 254 258 259 259 261 266 273 278 283 287 291 294 295 296 298 300 302 302 303 304 304 305 305 304 303 302 302 304 304 304 305 305 304 305 307 309 311 312 312 313 313 314 315 316 318 319 319 318 321 325 329 332 334 337 339 338 336 335 333 333 335 335
237 238 240 244 248 253 264 283 302 312 315 300 274 257 240 225 227 237 243 244 244 243 245 248 254 259 262 267 273 279 284 288 290 291 292 293 294 296 298 299 300 301 302 303 304 303 303 302 303 305 305 305 305 305 305 305 307 309 310 311 312 312 313 314 314 314 316 318 319 319 319 323 327 331 335 339 343 344 343 342 343 341 337 337 338
236 238 241 246 257 278 298 311 316 314 307 283 259 244 231 223 226 233 236 237 239 242 246 252 258 265 271 277 282 285 287 289 289 289 290 291 292 294 296 298 299 300 301 302 302 301 301 303 305 306 305 305 306 306 307 309 310 310 310 311 311 311 312 313 312 313 316 317 317 318 320 323 326 331 336 341 345 347 347 347 348 346 342 340 340
244 248 255 267 282 298 310 316 315 311 302 280 254 240 232 227 227 229 233 238 246 251 255 260 267 274 281 285 286 286 287 287 288 289 289 290 292 294 296 297 298 299 301 301 299 298 299 302 304 305 305 306 307 309 310 310 310 309 309 309 309 310 311 311 311 312 314 315 315 316 318 321 325 330 333 337 341 344 347 349 350 348 345 341 342
262 270 281 292 300 304 308 311 309 302 294 281 262 247 240 234 231 234 241 249 256 260 263 270 277 283 287 287 286 287 288 289 290 290 290 291 292 293 294 295 296 297 298 297 295 294 295 298 301 303 305 307 308 310 311 310 308 306 305 306 307 308 308 308 308 309 312 313 313 313 315 318 323 326 329 331 335 339 343 347 349 350 348 345 344
288 296 301 304 305 303 301 300 297 289 280 269 256 246 241 238 240 245 251 257 264 268 274 280 286 289 290 288 287 289 291 292 292 292 290 290 290 290 292 293 293 294 296 295 291 290 292 296 300 303 305 307 309 310 310 308 306 304 302 303 305 305 305 306 306 306 309 310 308 310 313 317 320 323 325 326 329 333 337 342 347 350 350 349 347
300 302 301 300 301 299 294 287 280 272 263 252 244 241 241 242 245 250 257 265 273 278 283 287 290 291 289 288 289 291 292 292 291 289 287 287 288 290 291 292 293 296 297 294 292 292 294 297 300 303 304 306 307 308 308 307 304 302 300 301 303 303 303 303 302 303 306 306 305 309 313 316 319 322 323 324 327 329 332 337 343 349 352 351 350
293 297 298 299 299 295 283 269 258 251 244 239 238 241 243 245 250 260 271 278 282 283 285 288 289 288 287 287 288 289 288 287 286 285 285 286 288 289 291 293 295 297 297 296 295 296 296 298 300 301 302 304 305 305 305 305 303 301 300 300 301 300 299 299 300 302 304 305 307 310 313 316 319 320 322 324 326 327 329 334 341 347 351 351 352
292 297 299 298 294 284 267 250 241 237 235 236 241 246 249 255 265 274 280 282 281 282 284 285 286 285 285 285 285 285 284 283 283 283 284 286 288 290 292 293 295 296 297 296 296 296 296 297 297 297 299 301 302 301 302 303 301 300 298 298 298 296 296 297 299 301 303 305 308 311 314 317 319 321 322 325 326 326 330 335 339 345 349 350 352
291 294 292 284 276 268 257 245 239 241 246 251 256 259 262 267 272 277 278 279 280 282 283 283 283 283 282 282 282 281 281 281 282 282 284 286 289 290 291 292 293 294 294 295 295 294 294 294 293 294 296 297 298 298 300 300 299 298 297 295 294 293 294 295 296 299 302 305 309 314 317 319 322 324 325 326 328 330 331 334 338 342 347 350 353
280 280 276 265 257 256 256 253 253 257 262 265 267 267 268 271 274 276 278 279 281 281 281 281 280 280 280 280 281 280 280 279 279 281 285 288 290 289 289 290 291 292 292 294 293 292 291 290 290 290 291 292 294 296 297 297 296 295 293 292 291 292 293 294 293 296 302 307 311 317 321 323 325 328 329 329 330 333 334 334 337 340 344 349 353
263 264 260 253 251 255 259 260 262 265 267 268 270 272 275 277 278 278 279 279 278 278 278 278 278 278 278 278 278 279 279 278 280 285 290 292 291 290 291 291 292 292 293 295 293 290 290 290 289 287 287 289 292 295 295 294 294 292 289 289 290 291 291 291 293 298 305 310 314 319 325 329 329 331 333 333 333 336 337 334 334 337 343 349 353
251 252 253 253 256 260 261 261 264 268 271 275 279 282 283 282 281 280 279 277 277 277 277 277 278 278 277 274 272 273 274 276 281 287 290 289 289 291 293 294 295 295 296 296 294 291 291 292 288 284 284 288 292 293 293 291 289 287 287 287 289 289 289 290 295 301 307 312 317 322 329 334 333 333 336 337 335 336 339 339 337 338 345 351 353
239 239 244 250 255 258 262 266 271 275 280 284 286 285 284 282 281 280 279 279 279 280 280 280 279 279 278 277 275 274 274 277 280 282 280 280 285 290 293 294 296 296 296 296 295 293 292 290 285 282 284 289 291 289 287 285 282 282 284 286 286 286 287 289 295 303 308 314 320 326 331 335 336 336 337 339 337 337 341 345 346 343 345 353 357
224 228 235 242 249 256 263 269 274 279 283 285 285 284 283 282 281 281 282 283 284 284 284 283 283 282 281 280 279 278 277 278 279 279 278 280 284 288 291 293 295 295 294 295 294 293 290 286 283 284 286 288 287 283 281 280 278 278 282 283 281 281 285 290 296 304 310 315 320 326 331 334 336 337 338 339 340 339 341 347 352 350 346 350 358
229 236 243 248 255 261 267 273 277 281 283 283 283 284 284 284 286 288 289 289 289 289 287 285 283 281 280 279 278 278 277 277 277 278 279 280 282 285 287 290 291 292 293 294 293 291 288 284 281 282 284 284 281 278 276 276 276 277 279 279 276 278 284 291 297 304 311 315 319 323 328 330 333 336 338 339 340 341 343 346 352 356 354 352 357
242 247 252 257 262 268 272 276 278 281 282 284 285 287 288 290 291 292 292 292 290 288 286 283 279 276 276 275 275 275 275 275 274 275 277 279 281 282 284 286 288 289 291 292 291 289 287 281 276 276 279 278 275 273 273 273 275 277 275 272 272 276 282 289 297 304 310 313 316 320 324 326 330 334 337 338 340 342 344 347 353 359 1 359 360
252 256 260 265 268 271 275 278 281 284 286 287 288 288 288 289 290 289 289 289 288 285 284 283 281 277 275 274 273 274 275 274 273 274 277 278 278 279 280 282 285 287 289 290 289 288 284 277 271 270 273 272 269 269 272 273 273 273 269 265 267 275 282 289 298 306 310 312 315 318 320 322 327 332 335 336 338 341 344 348 355 360 2 3 5
259 263 266 270 272 276 281 284 285 286 286 285 285 286 287 288 288 288 288 288 288 287 287 286 284 280 276 274 273 273 273 273 273 276 277 277 275 275 276 278 280 283 286 288 288 285 280 272 265 264 267 266 263 264 269 272 271 268 264 261 264 271 280 288 295 303 308 311 314 316 317 319 324 328 331 332 334 337 342 347 351 357 3 5 6
Height
3177 3179 3180 3180 3181 3181 3182 3182 3183 3184 3185 3184 3185 3186 3186 3185 3185 3185 3185 3186 3186 3186 3186 3186 3186 3186 3186 3185 3184 3183 3182 3181 3180 3179 3178 3178 3177 3176 3176 3175 3174 3173 3172 3171 3170 3169 3168 3168 3167 3166 3165 3165 3164 3163 3162 3161 3160 3159 3157 3155 3154 3152 3150 3147 3145 3144 3146 3145 3141 3139 3138 3137 3137 3136 3134 3133 3132 3130 3129 3128 3128 3127 3126 3126 3126
3175 3177 3177 3177 3178 3179 3179 3181 3182 3182 3182 3182 3182 3182 3183 3182 3182 3182 3182 3183 3183 3183 3183 3183 3183 3183 3183 3183 3182 3181 3180 3179 3178 3178 3177 3176 3175 3174 3174 3173 3172 3172 3171 3170 3168 3167 3167 3166 3165 3164 3163 3163 3162 3161 3160 3159 3157 3156 3154 3152 3151 3149 3146 3144 3142 3140 3140 3141 3139 3136 3134 3133 3133 3133 3131 3130 3128 3126 3126 3125 3124 3122 3121 3121 3121
3173 3173 3174 3175 3174 3174 3176 3178 3179 3179 3179 3178 3179 3179 3179 3180 3180 3180 3179 3180 3180 3181 3181 3181 3181 3181 3181 3180 3180 3179 3178 3177 3177 3176 3175 3174 3173 3173 3172 3172 3171 3170 3169 3168 3167 3166 3166 3165 3163 3162 3161 3160 3160 3158 3157 3156 3155 3153 3152 3149 3147 3146 3144 3141 3139 3137 3135 3136 3136 3133 3131 3129 3129 3128 3127 3126 3124 3122 3121 3121 3119 3118 3117 3116 3115
3170 3170 3171 3171 3169 3171 3174 3175 3175 3175 3175 3175 3176 3176 3176 3176 3177 3177 3177 3177 3177 3178 3179 3179 3179 3179 3179 3178 3178 3177 3176 3176 3175 3173 3172 3172 3171 3171 3170 3170 3169 3168 3168 3167 3166 3165 3164 3163 3161 3160 3159 3158 3157 3156 3154 3153 3152 3150 3148 3146 3144 3142 3140 3138 3136 3134 3132 3131 3132 3131 3128 3126 3124 3124 3123 3121 3120 3118 3116 3115 3115 3113 3112 3111 3110
3167 3168 3168 3166 3165 3169 3171 3170 3170 3171 3172 3173 3173 3173 3172 3173 3173 3173 3173 3174 3174 3175 3176 3176 3176 3177 3177 3176 3176 3175 3174 3173 3172 3171 3170 3170 3169 3168 3168 3168 3167 3167 3166 3165 3164 3163 3162 3161 3159 3157 3156 3155 3154 3153 3152 3150 3149 3148 3145 3143 3141 3139 3137 3136 3133 3131 3129 3127 3127 3127 3125 3122 3120 3120 3118 3116 3114 3114 3112 3110 3109 3108 3107 3106 3105
3164 3165 3165 3162 3162 3164 3165 3165 3165 3167 3169 3169 3169 3169 3168 3168 3169 3169 3169 3171 3172 3172 3173 3173 3173 3174 3175 3174 3173 3172 3172 3171 3170 3168 3168 3167 3167 3166 3166 3166 3165 3165 3164 3163 3161 3160 3159 3158 3156 3155 3153 3153 3152 3151 3149 3148 3146 3145 3143 3140 3138 3135 3134 3132 3131 3128 3126 3124 3122 3122 3122 3120 3117 3116 3115 3112 3109 3108 3107 3105 3104 3103 3102 3101 3099
3161 3162 3160 3158 3159 3161 3162 3162 3162 3162 3163 3164 3165 3164 3164 3164 3165 3166 3166 3167 3169 3169 3169 3169 3170 3170 3171 3170 3170 3169 3169 3168 3167 3166 3165 3165 3164 3164 3164 3164 3163 3162 3161 3160 3159 3158 3156 3155 3153 3152 3151 3150 3149 3148 3147 3145 3144 3142 3140 3137 3135 3132 3131 3129 3128 3125 3123 3121 3119 3118 3117 3116 3114 3112 3110 3108 3106 3104 3102 3099 3098 3098 3097 3095 3094
3157 3158 3156 3155 3156 3158 3160 3160 3159 3158 3159 3159 3159 3160 3160 3160 3160 3162 3162 3163 3165 3166 3165 3166 3167 3166 3166 3166 3166 3166 3166 3165 3164 3163 3162 3162 3162 3162 3162 3161 3161 3160 3159 3158 3157 3155 3154 3152 3150 3149 3148 3147 3146 3145 3144 3142 3140 3138 3136 3134 3131 3129 3127 3126 3124 3122 3120 3117 3116 3114 3112 3111 3111 3108 3106 3104 3102 3100 3097 3094 3092 3092 3091 3089 3088
3153 3153 3153 3153 3154 3155 3157 3157 3156 3156 3155 3153 3153 3157 3158 3156 3155 3158 3159 3158 3161 3162 3161 3162 3163 3162 3162 3162 3162 3163 3162 3162 3161 3160 3160 3160 3160 3160 3160 3159 3158 3157 3156 3155 3154 3153 3151 3149 3148 3146 3145 3145 3143 3142 3140 3138 3136 3134 3132 3130 3128 3126 3124 3122 3120 3118 3116 3114 3112 3111 3109 3107 3106 3104 3102 3100 3098 3095 3093 3090 3087 3086 3084 3082 3082
3149 3150 3150 3150 3151 3152 3153 3153 3153 3152 3148 3146 3149 3154 3154 3151 3150 3151 3151 3152 3157 3159 3158 3159 3159 3158 3159 3159 3159 3159 3159 3158 3158 3157 3157 3157 3157 3157 3157 3156 3155 3154 3154 3153 3152 3150 3148 3146 3145 3144 3143 3142 3141 3138 3136 3134 3132 3130 3128 3126 3124 3122 3120 3118 3116 3114 3112 3110 3108 3107 3105 3103 3102 3100 3098 3096 3093 3090 3088 3085 3083 3080 3079 3076 3075
3146 3147 3147 3147 3147 3148 3149 3149 3149 3148 3142 3140 3145 3147 3146 3146 3146 3143 3143 3146 3151 3155 3155 3155 3156 3155 3156 3156 3155 3155 3155 3155 3155 3154 3154 3154 3154 3154 3154 3153 3152 3151 3151 3150 3149 3147 3145 3143 3142 3141 3140 3139 3137 3134 3132 3130 3129 3127 3125 3123 3121 3118 3116 3114 3112 3110 3108 3106 3104 3103 3101 3099 3098 3096 3094 3091 3089 3086 3083 3081 3078 3075 3074 3071 3068
3143 3143 3143 3143 3143 3143 3145 3145 3144 3143 3139 3138 3139 3137 3136 3139 3139 3138 3140 3142 3144 3148 3150 3151 3151 3152 3152 3153 3152 3151 3151 3152 3151 3151 3151 3151 3151 3151 3151 3150 3150 3149 3148 3147 3146 3144 3142 3140 3138 3137 3136 3135 3133 3130 3128 3127 3125 3123 3121 3119 3117 3115 3112 3110 3108 3105 3103 3101 3100 3099 3098 3095 3093 3092 3090 3087 3084 3081 3079 3077 3074 3071 3069 3066 3062
3139 3139 3139 3139 3139 3140 3140 3140 3140 3138 3136 3135 3135 3133 3130 3130 3132 3134 3136 3136 3138 3142 3145 3146 3147 3148 3148 3149 3148 3148 3148 3148 3148 3148 3148 3148 3148 3148 3147 3147 3147 3146 3145 3144 3142 3140 3138 3137 3135 3134 3133 3131 3129 3127 3124 3123 3121 3119 3117 3115 3113 3111 3109 3106 3104 3101 3099 3096 3094 3094 3093 3090 3087 3087 3086 3082 3079 3076 3074 3071 3070 3067 3064 3061 3058
3135 3135 3135 3135 3135 3135 3136 3136 3136 3134 3133 3132 3132 3132 3129 3128 3128 3130 3131 3131 3134 3137 3139 3141 3143 3144 3144 3145 3144 3144 3144 3145 3145 3146 3145 3145 3145 3144 3144 3144 3143 3142 3141 3140 3138 3136 3135 3134 3133 3132 3130 3128 3125 3123 3121 3119 3117 3115 3113 3111 3109 3107 3104 3102 3100 3098 3095 3093 3090 3089 3089 3086 3083 3081 3081 3078 3074 3071 3069 3066 3064 3062 3058 3056 3054
3132 3131 3131 3131 3131 3131 3132 3132 3132 3131 3130 3129 3129 3129 3127 3125 3125 3126 3126 3127 3130 3133 3135 3136 3138 3139 3141 3141 3141 3141 3141 3142 3143 3143 3143 3142 3142 3141 3140 3140 3139 3138 3137 3136 3134 3133 3132 3130 3129 3127 3126 3124 3121 3119 3117 3115 3112 3110 3108 3106 3105 3103 3100 3097 3096 3094 3092 3090 3088 3086 3084 3082 3080 3077 3076 3074 3070 3067 3064 3061 3059 3056 3052 3050 3048
3129 3128 3127 3127 3127 3128 3128 3128 3128 3127 3127 3126 3126 3125 3123 3121 3121 3122 3121 3122 3125 3128 3130 3131 3134 3136 3137 3137 3137 3138 3139 3139 3140 3140 3140 3140 3139 3138 3137 3136 3135 3133 3132 3131 3130 3129 3127 3126 3124 3123 3121 3119 3117 3115 3113 3110 3108 3105 3104 3102 3100 3098 3096 3093 3092 3090 3089 3086 3084 3082 3080 3078 3076 3074 3072 3070 3066 3062 3059 3057 3055 3051 3047 3044 3042
3125 3125 3124 3124 3124 3124 3125 3124 3124 3124 3124 3123 3123 3121 3119 3117 3117 3117 3117 3118 3121 3124 3126 3128 3130 3132 3133 3133 3134 3135 3136 3136 3136 3137 3137 3137 3136 3134 3134 3133 3130 3128 3127 3128 3127 3125 3123 3122 3120 3119 3117 3115 3113 3111 3109 3106 3103 3101 3100 3098 3096 3094 3092 3090 3089 3087 3086 3083 3081 3079 3076 3074 3072 3070 3068 3066 3062 3058 3054 3052 3051 3047 3043 3040 3036
3122 3121 3121 3121 3121 3121 3121 3121 3120 3120 3120 3120 3119 3118 3115 3113 3113 3113 3114 3115 3117 3120 3122 3125 3126 3128 3129 3129 3130 3131 3132 3132 3132 3133 3134 3133 3132 3131 3130 3128 3126 3124 3125 3125 3123 3121 3119 3118 3117 3115 3113 3111 3109 3107 3104 3102 3099 3098 3096 3094 3092 3090 3089 3088 3086 3084 3082 3080 3077 3075 3073 3071 3069 3067 3065 3062 3059 3055 3050 3048 3046 3042 3039 3036 3032
3118 3118 3118 3118 3118 3118 3117 3117 3117 3116 3116 3116 3115 3113 3112 3110 3110 3110 3111 3112 3114 3116 3118 3120 3122 3124 3124 3125 3126 3128 3128 3128 3129 3131 3130 3130 3129 3127 3126 3125 3123 3121 3122 3121 3119 3117 3115 3114 3113 3111 3109 3107 3105 3103 3100 3098 3096 3094 3092 3090 3088 3087 3086 3085 3083 3081 3078 3076 3074 3072 3070 3068 3065 3063 3061 3059 3056 3052 3048 3045 3042 3038 3034 3031 3028
3115 3114 3114 3114 3114 3114 3113 3113 3112 3112 3112 3113 3111 3109 3108 3107 3107 3107 3108 3109 3110 3112 3114 3116 3118 3120 3120 3122 3123 3124 3124 3126 3127 3127 3126 3126 3125 3124 3122 3121 3118 3117 3116 3116 3115 3113 3111 3110 3108 3107 3105 3102 3100 3098 3095 3094 3092 3090 3088 3086 3084 3083 3082 3081 3079 3077 3074 3072 3070 3068 3066 3064 3062 3060 3057 3055 3052 3048 3045 3042 3038 3034 3030 3026 3023
3112 3111 3111 3111 3111 3110 3110 3109 3108 3108 3108 3109 3108 3105 3104 3104 3104 3105 3105 3106 3107 3109 3111 3113 3114 3115 3117 3118 3120 3120 3120 3122 3123 3123 3122 3122 3121 3119 3117 3115 3114 3113 3112 3112 3111 3109 3108 3106 3104 3102 3100 3097 3095 3093 3091 3090 3088 3086 3084 3082 3081 3080 3078 3077 3075 3073 3070 3068 3066 3064 3062 3061 3058 3056 3053 3050 3048 3045 3041 3038 3035 3031 3027 3022 3017
3108 3107 3107 3107 3107 3106 3106 3106 3105 3104 3104 3104 3104 3102 3101 3101 3101 3102 3102 3104 3105 3107 3108 3110 3111 3113 3114 3115 3115 3115 3117 3119 3119 3119 3119 3118 3116 3114 3113 3112 3112 3111 3110 3109 3107 3105 3104 3101 3099 3097 3095 3092 3091 3089 3087 3086 3084 3082 3080 3079 3077 3076 3075 3073 3071 3069 3066 3064 3062 3060 3058 3056 3054 3052 3049 3046 3043 3040 3037 3034 3031 3027 3023 3019 3014
3104 3104 3104 3104 3103 3103 3103 3102 3102 3101 3100 3100 3099 3098 3098 3098 3098 3098 3099 3100 3102 3104 3106 3107 3109 3110 3111 3111 3112 3112 3114 3115 3115 3115 3115 3114 3112 3111 3111 3110 3110 3108 3107 3105 3103 3101 3099 3097 3095 3093 3090 3088 3087 3085 3083 3082 3080 3079 3077 3075 3074 3073 3071 3069 3067 3065 3063 3061 3058 3056 3054 3052 3050 3048 3045 3042 3039 3036 3033 3030 3028 3024 3020 3016 3013
3101 3101 3101 3101 3100 3100 3099 3099 3098 3097 3096 3095 3094 3094 3095 3095 3095 3095 3096 3098 3099 3102 3104 3105 3106 3106 3106 3107 3107 3108 3109 3109 3109 3110 3110 3109 3108 3108 3108 3107 3106 3104 3102 3100 3098 3097 3095 3093 3090 3088 3086 3085 3083 3081 3080 3078 3077 3075 3073 3072 3071 3069 3067 3066 3064 3062 3060 3057 3055 3052 3050 3048 3046 3043 3040 3037 3034 3031 3029 3026 3024 3020 3016 3012 3010
3098 3098 3098 3097 3096 3096 3095 3095 3094 3093 3092 3091 3091 3091 3091 3092 3091 3092 3093 3095 3097 3099 3100 3101 3102 3102 3102 3102 3103 3104 3105 3106 3105 3105 3104 3104 3104 3104 3103 3103 3101 3100 3098 3096 3094 3092 3090 3088 3086 3084 3082 3080 3079 3077 3075 3074 3072 3071 3070 3068 3067 3066 3064 3062 3060 3058 3056 3053 3051 3049 3047 3045 3042 3039 3036 3033 3030 3027 3024 3022 3019 3016 3013 3009 3007
3094 3094 3093 3093 3092 3092 3092 3091 3090 3089 3089 3088 3088 3088 3088 3088 3088 3089 3091 3093 3094 3096 3096 3097 3099 3099 3099 3099 3099 3101 3102 3103 3101 3099 3099 3099 3099 3099 3099 3098 3097 3095 3093 3091 3089 3087 3085 3083 3082 3080 3078 3076 3075 3073 3071 3070 3068 3067 3066 3065 3064 3062 3061 3059 3056 3054 3052 3049 3047 3045 3043 3041 3039 3036 3032 3029 3026 3023 3020 3017 3015 3012 3009 3006 3004
3090 3089 3089 3089 3089 3088 3088 3088 3087 3086 3086 3086 3086 3086 3085 3085 3086 3087 3088 3090 3092 3093 3093 3094 3095 3094 3094 3094 3095 3097 3098 3098 3097 3096 3096 3096 3096 3095 3094 3093 3092 3090 3088 3086 3084 3082 3080 3079 3077 3075 3074 3072 3071 3069 3068 3066 3065 3063 3062 3061 3060 3059 3057 3054 3052 3050 3047 3045 3043 3041 3039 3037 3035 3032 3029 3026 3023 3019 3016 3013 3011 3009 3006 3003 3000
3085 3085 3085 3085 3085 3085 3085 3084 3083 3083 3083 3083 3083 3083 3082 3082 3083 3085 3086 3087 3088 3089 3089 3090 3090 3090 3090 3091 3093 3095 3095 3094 3093 3093 3093 3093 3092 3091 3090 3088 3087 3086 3083 3081 3079 3077 3076 3074 3072 3071 3070 3068 3067 3065 3064 3062 3061 3060 3059 3058 3056 3055 3053 3050 3048 3046 3044 3041 3039 3037 3036 3034 3031 3028 3026 3023 3020 3016 3014 3011 3008 3005 3003 3000 2997
3081 3081 3081 3081 3082 3081 3081 3080 3080 3079 3079 3080 3080 3079 3079 3080 3081 3082 3083 3084 3085 3086 3086 3087 3087 3088 3088 3090 3091 3092 3091 3090 3091 3091 3090 3089 3088 3087 3085 3084 3083 3081 3079 3077 3075 3073 3071 3070 3068 3067 3065 3064 3062 3061 3060 3059 3058 3057 3056 3054 3053 3051 3049 3047 3045 3043 3040 3038 3036 3034 3032 3030 3028 3025 3022 3020 3017 3014 3011 3008 3005 3003 3000 2998 2995
3077 3077 3077 3077 3077 3077 3076 3076 3076 3076 3076 3076 3076 3075 3076 3078 3079 3080 3081 3082 3083 3083 3084 3085 3085 3085 3087 3087 3088 3088 3088 3087 3087 3087 3086 3085 3084 3082 3081 3080 3078 3076 3074 3072 3071 3069 3067 3066 3064 3062 3061 3059 3058 3058 3057 3056 3055 3053 3052 3051 3049 3047 3045 3043 3041 3039 3037 3035 3033 3031 3029 3027 3025 3022 3020 3017 3015 3012 3009 3006 3003 3000 2998 2995 2993
3073 3073 3073 3073 3072 3072 3073 3073 3073 3073 3073 3073 3073 3072 3073 3076 3078 3079 3079 3080 3080 3081 3082 3082 3082 3084 3085 3085 3084 3084 3084 3084 3084 3083 3082 3081 3079 3078 3076 3075 3074 3072 3070 3068 3067 3065 3063 3062 3060 3059 3057 3056 3055 3054 3053 3052 3051 3050 3049 3047 3046 3044 3042 3040 3039 3037 3035 3032 3030 3029 3027 3025 3022 3020 3017 3015 3012 3010 3007 3004 3001 2999 2996 2993 2991
3069 3069 3069 3068 3069 3070 3070 3071 3071 3071 3071 3071 3070 3070 3072 3074 3076 3076 3077 3077 3078 3078 3079 3080 3081 3082 3083 3082 3081 3081 3081 3080 3079 3078 3077 3076 3075 3073 3072 3071 3070 3068 3066 3065 3063 3062 3060 3058 3057 3055 3054 3053 3052 3051 3050 3049 3048 3047 3046 3044 3043 3041 3039 3038 3036 3034 3032 3030 3028 3027 3025 3023 3020 3018 3015 3013 3010 3008 3005 3003 3000 2997 2995 2993 2990
3066 3066 3066 3066 3067 3068 3068 3068 3068 3068 3068 3068 3068 3068 3069 3071 3072 3073 3073 3073 3074 3075 3076 3078 3079 3079 3079 3079 3078 3078 3077 3076 3075 3074 3073 3072 3071 3070 3068 3067 3066 3064 3063 3061 3060 3058 3057 3055 3053 3052 3051 3050 3049 3049 3048 3047 3045 3044 3043 3041 3040 3038 3037 3035 3033 3031 3029 3027 3026 3024 3023 3021 3018 3016 3014 3011 3009 3006 3003 3001 2998 2996 2994 2992 2989
3063 3063 3063 3064 3065 3065 3065 3065 3065 3065 3065 3065 3066 3066 3067 3068 3069 3070 3070 3071 3072 3072 3074 3075 3076 3076 3076 3075 3075 3074 3073 3072 3071 3070 3069 3068 3067 3066 3065 3064 3063 3061 3060 3058 3057 3055 3053 3052 3051 3050 3049 3048 3047 3046 3045 3044 3043 3041 3040 3039 3037 3035 3034 3032 3031 3029 3027 3025 3024 3023 3021 3019 3017 3015 3012 3010 3008 3005 3002 3000 2997 2995 2992 2990 2988
3060 3060 3061 3062 3062 3062 3063 3063 3063 3063 3064 3064 3064 3064 3064 3065 3066 3067 3068 3069 3069 3070 3071 3072 3073 3073 3072 3071 3071 3070 3069 3068 3067 3066 3065 3064 3063 3063 3061 3060 3059 3057 3056 3055 3053 3052 3050 3049 3048 3047 3046 3045 3044 3043 3042 3041 3040 3038 3037 3036 3034 3033 3031 3030 3028 3026 3025 3023 3022 3021 3019 3017 3015 3013 3011 3009 3007 3005 3002 2999 2996 2994 2991 2989 2986
3058 3058 3058 3059 3059 3060 3060 3061 3061 3061 3061 3061 3061 3062 3062 3063 3064 3065 3066 3067 3068 3068 3069 3069 3069 3069 3068 3067 3066 3065 3065 3064 3063 3062 3061 3060 3059 3059 3058 3056 3055 3054 3052 3051 3050 3049 3048 3047 3046 3045 3044 3043 3042 3041 3039 3038 3037 3035 3034 3033 3031 3030 3029 3027 3026 3024 3022 3021 3020 3019 3018 3016 3014 3012 3010 3008 3006 3004 3001 2999 2996 2993 2990 2988 2985
3056 3056 3056 3056 3057 3057 3058 3058 3058 3058 3058 3058 3059 3059 3060 3061 3062 3063 3064 3065 3065 3066 3066 3065 3065 3065 3064 3063 3062 3062 3061 3060 3059 3058 3057 3056 3056 3055 3054 3053 3052 3050 3049 3048 3047 3046 3045 3044 3043 3042 3041 3040 3039 3038 3037 3035 3034 3032 3031 3030 3029 3028 3026 3025 3024 3022 3021 3020 3019 3018 3016 3015 3013 3011 3009 3007 3005 3003 3001 2998 2996 2993 2990 2987 2985
3054 3054 3054 3055 3055 3055 3055 3055 3055 3055 3055 3056 3056 3057 3058 3060 3061 3061 3062 3062 3062 3062 3062 3062 3061 3060 3060 3059 3058 3057 3056 3055 3054 3053 3053 3052 3052 3051 3050 3049 3048 3047 3045 3044 3043 3042 3042 3041 3040 3039 3038 3037 3036 3035 3034 3032 3031 3029 3028 3027 3026 3025 3024 3023 3022 3020 3019 3018 3017 3016 3015 3013 3011 3009 3008 3006 3004 3002 3000 2998 2996 2993 2990 2988 2985
3051 3052 3052 3052 3053 3052 3052 3052 3053 3053 3053 3054 3055 3056 3057 3057 3058 3059 3059 3059 3059 3058 3058 3058 3057 3056 3055 3054 3054 3053 3052 3051 3050 3049 3048 3048 3047 3046 3045 3044 3044 3043 3042 3041 3040 3039 3039 3038 3037 3036 3035 3034 3033 3032 3031 3029 3028 3027 3025 3025 3024 3023 3022 3021 3020 3019 3018 3017 3016 3015 3013 3012 3010 3008 3006 3004 3003 3001 2999 2997 2995 2993 2991 2988 2985
3049 3049 3050 3050 3050 3050 3050 3050 3051 3051 3052 3053 3053 3054 3055 3055 3055 3056 3056 3055 3055 3054 3054 3053 3053 3052 3051 3050 3050 3049 3048 3047 3046 3045 3044 3043 3043 3042 3041 3041 3040 3039 3038 3038 3037 3036 3035 3034 3034 3033 3032 3031 3030 3029 3028 3026 3025 3024 3023 3022 3021 3021 3020 3019 3018 3017 3017 3016 3015 3014 3012 3010 3008 3007 3005 3003 3001 3000 2998 2996 2994 2993 2990 2988 2985
3046 3046 3046 3047 3047 3047 3048 3048 3049 3049 3050 3051 3051 3052 3052 3052 3052 3052 3052 3051 3051 3050 3050 3049 3048 3048 3047 3046 3045 3045 3044 3043 3042 3041 3040 3040 3039 3038 3038 3037 3037 3036 3035 3034 3033 3033 3032 3031 3030 3029 3029 3028 3027 3026 3025 3023 3022 3021 3021 3020 3019 3019 3018 3018 3017 3016 3015 3015 3014 3012 3011 3009 3007 3005 3003 3002 3000 2999 2997 2995 2994 2992 2990 2988 2985
3043 3043 3044 3044 3045 3046 3046 3047 3047 3048 3048 3049 3049 3049 3049 3049 3049 3048 3048 3047 3047 3046 3045 3045 3044 3043 3042 3042 3041 3041 3040 3039 3038 3037 3037 3036 3036 3035 3035 3034 3033 3033 3032 3031 3030 3029 3028 3027 3027 3026 3026 3025 3024 3023 3022 3021 3020 3019 3019 3018 3018 3017 3017 3016 3015 3015 3014 3013 3012 3011 3009 3007 3006 3004 3002 3000 2999 2997 2996 2994 2993 2992 2990 2988 2986
3040 3041 3042 3042 3043 3044 3044 3045 3045 3045 3046 3046 3046 3046 3045 3045 3045 3044 3044 3043 3042 3041 3041 3040 3039 3039 3038 3038 3037 3036 3036 3035 3034 3034 3033 3033 3032 3032 3031 3031 3030 3029 3028 3027 3026 3025 3024 3023 3023 3023 3023 3022 3021 3020 3019 3018 3018 3017 3017 3016 3016 3016 3015 3015 3014 3014 3013 3012 3011 3009 3008 3006 3005 3003 3001 2999 2998 2996 2995 2994 2992 2991 2990 2988 2986
3038 3039 3039 3040 3040 3041 3041 3042 3042 3042 3042 3042 3042 3042 3041 3041 3040 3040 3039 3039 3038 3037 3037 3036 3035 3035 3034 3034 3033 3033 3032 3032 3031 3030 3030 3029 3029 3028 3028 3027 3026 3025 3024 3023 3023 3021 3020 3020 3020 3020 3020 3019 3018 3017 3017 3016 3016 3015 3015 3015 3015 3014 3014 3013 3013 3012 3012 3011 3009 3008 3006 3005 3004 3002 3000 2999 2997 2996 2995 2993 2992 2991 2989 2988 2986
3036 3036 3037 3037 3037 3038 3038 3039 3039 3039 3039 3038 3038 3038 3037 3037 3036 3035 3035 3034 3034 3033 3033 3032 3032 3031 3031 3031 3030 3030 3029 3029 3028 3028 3027 3026 3025 3025 3024 3023 3022 3022 3021 3020 3019 3018 3018 3017 3017 3017 3017 3016 3016 3015 3014 3014 3014 3013 3013 3013 3013 3013 3013 3012 3012 3011 3010 3009 3008 3007 3005 3004 3003 3001 3000 2998 2997 2995 2994 2993 2991 2990 2989 2988 2987
3033 3034 3034 3034 3035 3035 3035 3035 3035 3035 3035 3034 3034 3034 3033 3032 3032 3031 3031 3030 3030 3030 3029 3028 3028 3027 3027 3027 3027 3027 3026 3026 3025 3025 3025 3023 3022 3021 3021 3020 3019 3018 3018 3017 3017 3016 3015 3015 3014 3014 3014 3014 3013 3013 3012 3012 3012 3012 3012 3012 3012 3011 3011 3011 3010 3010 3009 3008 3007 3006 3005 3003 3002 3001 2999 2998 2996 2995 2993 2992 2991 2990 2989 2988 2987
3031 3031 3032 3031 3032 3032 3032 3032 3032 3031 3031 3031 3030 3030 3029 3029 3028 3028 3027 3027 3027 3026 3025 3025 3024 3024 3024 3024 3023 3023 3023 3023 3022 3022 3021 3020 3019 3018 3018 3017 3016 3016 3015 3015 3014 3013 3013 3012 3012 3012 3012 3011 3011 3011 3010 3010 3010 3010 3010 3010 3010 3010 3010 3010 3009 3008 3007 3006 3006 3005 3003 3002 3001 3000 2999 2997 2996 2994 2993 2992 2991 2990 2988 2987 2987
3028 3029 3029 3029 3029 3029 3029 3029 3028 3028 3028 3027 3027 3026 3026 3025 3025 3025 3024 3024 3023 3023 3022 3022 3021 3021 3021 3020 3020 3020 3020 3019 3019 3018 3017 3017 3016 3015 3014 3014 3013 3012 3012 3011 3011 3010 3010 3009 3009 3009 3009 3009 3009 3008 3008 3008 3008 3008 3008 3009 3009 3009 3008 3008 3008 3007 3006 3005 3004 3004 3002 3001 3001 3000 2998 2997 2996 2994 2993 2992 2991 2989 2988 2987 2987
3026 3026 3026 3026 3026 3026 3026 3026 3025 3025 3025 3024 3024 3023 3023 3022 3022 3021 3021 3021 3020 3019 3019 3018 3018 3018 3017 3017 3017 3016 3016 3016 3015 3015 3014 3013 3012 3011 3011 3010 3010 3009 3009 3008 3007 3007 3006 3006 3006 3006 3006 3006 3006 3006 3006 3007 3007 3007 3007 3007 3007 3007 3007 3007 3006 3006 3005 3004 3003 3002 3002 3001 3000 2999 2998 2997 2996 2994 2993 2992 2990 2989 2988 2987 2986
3023 3023 3023 3023 3023 3023 3023 3023 3022 3022 3022 3021 3021 3020 3020 3020 3019 3019 3018 3018 3017 3016 3015 3015 3014 3014 3013 3013 3013 3012 3012 3012 3011 3011 3010 3009 3008 3007 3007 3007 3006 3006 3005 3005 3004 3003 3003 3003 3003 3004 3004 3004 3004 3004 3004 3005 3005 3005 3005 3006 3006 3006 3006 3005 3005 3004 3004 3003 3002 3001 3000 3000 2999 2998 2997 2996 2995 2994 2993 2992 2990 2989 2988 2988 2987
3020 3020 3020 3020 3020 3020 3020 3020 3019 3019 3019 3018 3018 3018 3017 3017 3016 3016 3015 3015 3014 3013 3012 3011 3011 3010 3010 3009 3009 3008 3008 3008 3007 3007 3006 3006 3005 3004 3003 3003 3003 3002 3002 3001 3000 3000 2999 3000 3000 3001 3001 3002 3002 3002 3002 3002 3003 3003 3004 3004 3004 3004 3004 3004 3003 3003 3002 3001 3001 3000 2999 2998 2998 2997 2997 2996 2995 2994 2993 2992 2991 2990 2989 2988 2987